STARLINK-36707, 67706

Orbit data source: Space-Track

STARLINK-36707, 67706 is a payload satellite owned by SpaceX/Seattle (US) in SSO that was launched on Sat, 07 Feb 2026 UTC via an FALCON 9 launch vehicle from the Air Force Western Test Range (AFWTR). Payload-class satellites include a variety of spacecraft equipped with specific instruments for various scientific and technological missions. These include communications satellites like Starlink; space stations such as the ISS; scientific satellites like the Hubble; Earth observation satellites from companies like Planet Labs, Umbra, and HawkEye 360; GPS; miniature CubeSats for education and research; and military/defense satellites.

Loading next visibility...
Identifier
67706, 2026-025P
Orbit
SSO
Country
Flag of USUS
Related business
Manufacturer
SpaceX/Seattle
Mission
Operational Commercial Communications
Bus & Motor
STARLINK V2MO, Unknown motor
Mass
575 kg wet, ~530 kg dry
Launch date (UTC)
2026-02-07 (4 months ago)
Launch vehicle
FALCON 9
Launch site
Air Force Western Test Range (AFWTR)
Object type
Payload
Rocket body
Debris
Shape & HBR
Box + 2 Pan, 17.7 m
Radar Cross Section
36.964 m², Large (>1 m²)

Expand to show TLE details & history
Last TLE update: 14 hours ago

TLE from 14 hours ago
0 STARLINK-36707
1 67706U 26025P   26171.28807282  .00021001  00000-0  65064-3 0  9993
2 67706  97.2840 282.4958 0000756  86.7327 273.4002 15.33463467 21730
Epoch: 2026-06-20T06:54Z
TLE epoch observation values (Epoch: 2026-06-20T06:54:49.491Z)
Latitude
-0.00006°
Longitude
-89.71526°
Altitude
468.57 km
Speed
7.632 km/s
True Right ascension
18h 49m 58s
True Declination
0° 00' 00"
Sunlit
Object was in full shadow at epoch
Visualization orbit readout
Latitude
Unknown
Longitude
Unknown
Altitude
Unknown
Speed
Unknown
Apparent Right ascension
Unknown
Apparent Declination
Unknown
Sunlit
N/A
Visualization observer readout
Local Sidereal Time
07:20:58
Azimuth
Unknown
Elevation
Unknown
Doppler factor
Unknown
Orbital elements
Apogee altitude
462.948 km
Perigee altitude
461.914 km
Semi-major axis
6,840.568 km
Eccentricity
0.00008
Inclination
97.284°
RAAN
282.4958°
Arg. of periapsis
86.7327°
True anomaly
273.39155°
Mean anomaly
273.4002°
Eccentric anomaly
273.39588°
Mean motion
3.83623 °/min
Orbital period
93.84 mins
BSTAR
0.00065064
Loading maneuver chart data...
Computing Atmospheric mass density...
Loading historical data...
Loading historical data...
Loading historical data...
Loading historical data...
Loading historical data...
Loading historical data...
Loading historical data...

Documentation

Showing up to 5 results
|